Weather History for KDLH - September, 2013

Change the Weather History Date:

Thursday, September 26, 2013

  Actual Average Record
Temperature  
Mean Temperature 60 °F 51 °F  
Max Temperature 67 °F 61 °F 80 °F (1923)
Min Temperature 52 °F 42 °F 23 °F (1965)
Degree Days  
Heating Degree Days 5 14  
Month to date heating degree days 152 237  
Since 1 July heating degree days 226 386  
Cooling Degree Days 0 0  
Month to date cooling degree days 23 13  
Year to date cooling degree days 374 203  
Growing Degree Days 8 (Base 50)    
Moisture  
Dew Point 52 °F    
Average Humidity 80    
Maximum Humidity 96    
Minimum Humidity 63    
Precipitation  
Precipitation 0.00 in 0.13 in 2.43 in (1996)
Month to date precipitation 0.90 3.61  
Year to date precipitation 22.49 24.31  
Snow  
Snow 0.00 in 0.00 in T in (1964)
Month to date snowfall 0.0 0.1  
Since 1 July snowfall 0.0 0.1  
Since 1 September snowfall 0.0 0.1  
Snow Depth 0.00 in    
Sea Level Pressure  
Sea Level Pressure 29.98 in    
Wind  
Wind Speed 12 mph (ESE)    
Max Wind Speed 21 mph    
Max Gust Speed 25 mph    
Visibility 5 miles    
Events Fog    
T = Trace of Precipitation, MM = Missing Value Source: NWS Daily Summary

Daily Weather History Graph

Daily Weather History Graph

Search for Another Location

Airport or City:

Trip Planner

Search our weather history database for the weather conditions in past years. The results will help you decide how hot, cold, wet, or windy it might be!

Date:

Astronomy

Sep. 26, 2013 Rise Set
Actual Time 7:01 AM CDT 6:57 PM CDT
Civil Twilight 6:30 AM CDT 7:28 PM CDT
Nautical Twilight 5:55 AM CDT 8:03 PM CDT
Astronomical Twilight 5:19 AM CDT 8:39 PM CDT
Moon 11:38 PM CDT (9/26) 2:12 PM CDT (9/26)
Length of Visible Light 12h 57m
Length of Day
11h 56m
Waning Gibbous, 54% of the Moon is Illuminated
Sep 26
Waning Gibbous
Sep 26
Last Quarter
Oct 4
New
Oct 11
First Quarter
Oct 18
Full

Hourly Weather History & Observations

Time (CDT) Temp. Dew Point Humidity Pressure Visibility Wind Dir Wind Speed Gust Speed Precip Events Conditions
12:08 AM 53.6 °F 51.8 °F 94% 29.99 in 0.5 mi ESE 8.1 mph - N/A Fog Fog
12:55 AM 53.1 °F 52.0 °F 96% 30.00 in 0.8 mi ESE 8.1 mph - N/A   Mist
1:22 AM 53.6 °F 51.8 °F 94% 29.98 in 1.0 mi ESE 10.4 mph - N/A   Mist
1:48 AM 53.6 °F 51.8 °F 94% 29.99 in 0.8 mi ESE 9.2 mph - N/A   Mist
1:55 AM 53.1 °F 51.1 °F 93% 30.00 in 0.8 mi ESE 9.2 mph - N/A   Mist
2:33 AM 53.6 °F 51.8 °F 94% 29.98 in 1.0 mi ESE 9.2 mph - N/A   Mist
2:46 AM 53.6 °F 51.8 °F 94% 29.98 in 0.8 mi ESE 10.4 mph - N/A   Mist
2:55 AM 53.1 °F 51.1 °F 93% 29.99 in 0.8 mi ESE 10.4 mph - N/A   Mist
3:55 AM 53.1 °F 51.1 °F 93% 29.99 in 0.8 mi ESE 9.2 mph - N/A   Mist
4:48 AM 53.6 °F 50.0 °F 88% 29.97 in 1.5 mi ESE 11.5 mph - N/A   Mostly Cloudy
4:55 AM 53.1 °F 51.1 °F 93% 29.99 in 1.5 mi ESE 11.5 mph - N/A   Overcast
5:20 AM 53.6 °F 50.0 °F 88% 29.97 in 0.5 mi ESE 12.7 mph - N/A Fog Fog
5:55 AM 53.1 °F 50.0 °F 89% 29.99 in 0.8 mi ESE 15.0 mph - N/A   Mist
6:55 AM 52.0 °F 50.0 °F 93% 30.01 in 0.5 mi East 11.5 mph - N/A Fog Fog
7:03 AM 51.8 °F 50.0 °F 94% 29.98 in 0.2 mi ESE 11.5 mph - N/A Fog Fog
7:55 AM 53.1 °F 51.1 °F 93% 30.02 in 0.5 mi ESE 9.2 mph - N/A Fog Fog
8:45 AM 53.6 °F 51.8 °F 94% 30.00 in 1.5 mi ESE 11.5 mph - N/A   Mostly Cloudy
8:51 AM 53.6 °F 51.8 °F 94% 30.00 in 3.0 mi ESE 10.4 mph - N/A   Mostly Cloudy
8:55 AM 54.0 °F 52.0 °F 93% 30.01 in 3.0 mi ESE 10.4 mph - N/A   Mostly Cloudy
9:05 AM 55.4 °F 51.8 °F 88% 29.99 in 7.0 mi SE 9.2 mph - N/A   Scattered Clouds
9:55 AM 57.0 °F 51.1 °F 81% 30.01 in 9.0 mi SE 11.5 mph 19.6 mph N/A   Scattered Clouds
10:55 AM 59.0 °F 51.1 °F 75% 30.00 in 10.0 mi SE 11.5 mph - N/A   Scattered Clouds
11:55 AM 63.0 °F 52.0 °F 67% 29.99 in 10.0 mi ESE 15.0 mph - N/A   Scattered Clouds
12:55 PM 63.0 °F 52.0 °F 67% 29.98 in 10.0 mi ESE 12.7 mph - N/A   Partly Cloudy
1:55 PM 64.9 °F 52.0 °F 63% 29.96 in 10.0 mi East 17.3 mph - N/A   Partly Cloudy
2:55 PM 66.0 °F 53.1 °F 63% 29.94 in 10.0 mi East 16.1 mph - N/A   Clear
3:55 PM 66.0 °F 53.1 °F 63% 29.94 in 10.0 mi East 19.6 mph 24.2 mph N/A   Clear
4:55 PM 64.9 °F 54.0 °F 68% 29.94 in 10.0 mi ESE 13.8 mph - N/A   Clear
5:55 PM 62.1 °F 53.1 °F 72% 29.94 in 10.0 mi East 12.7 mph - N/A   Clear
6:55 PM 57.9 °F 52.0 °F 81% 29.94 in 10.0 mi East 12.7 mph - N/A   Clear
7:55 PM 55.9 °F 51.1 °F 84% 29.95 in 10.0 mi East 11.5 mph - N/A   Clear
8:55 PM 55.9 °F 52.0 °F 87% 29.95 in 10.0 mi East 15.0 mph - N/A   Clear
9:55 PM 57.0 °F 52.0 °F 83% 29.96 in 10.0 mi ESE 9.2 mph - N/A   Clear
10:55 PM 57.9 °F 52.0 °F 81% 29.96 in 10.0 mi ESE 9.2 mph - N/A   Clear
11:55 PM 59.0 °F 51.1 °F 75% 29.97 in 10.0 mi ESE 9.2 mph - N/A   Clear